Weather History for Pittsfield, IL

Change the Weather History Date:

Monday, October 1, 2012

  Actual Average (KUIN) Record (KUIN)
Temperature  
Mean Temperature 58 °F 60 °F  
Max Temperature 66 °F 71 °F 90 °F (1937)
Min Temperature 50 °F 49 °F 32 °F (1958)
Degree Days  
Heating Degree Days 7 7  
Month to date heating degree days 7  
Since 1 July heating degree days 94  
Cooling Degree Days 0 2  
Month to date cooling degree days 2  
Year to date cooling degree days 1078  
Growing Degree Days 8 (Base 50)    
Moisture  
Dew Point 46 °F    
Average Humidity 66    
Maximum Humidity 85    
Minimum Humidity 44    
Precipitation  
Precipitation 0.00 in 0.10 in 1.90 in (2014)
Month to date precipitation 0.10  
Year to date precipitation 29.15  
Sea Level Pressure  
Sea Level Pressure 29.85 in    
Wind  
Wind Speed 5 mph (NNE)    
Max Wind Speed 13 mph    
Max Gust Speed 18 mph    
Visibility 10 miles    
Events      
T = Trace of Precipitation, MM = Missing Value Source: NWS Daily Summary

Daily Weather History Graph

Daily Weather History Graph

Search for Another Location

Airport:

Trip Planner

Search our weather history database for the weather conditions in past years. The results will help you decide how hot, cold, wet, or windy it might be!

Date:

Astronomy

Oct. 01, 2012 Rise Set
Actual Time 6:59 AM CDT 6:44 PM CDT
Civil Twilight 6:32 AM CDT 7:11 PM CDT
Nautical Twilight 6:01 AM CDT 7:42 PM CDT
Astronomical Twilight 5:30 AM CDT 8:14 PM CDT
Moon 7:22 PM CDT (10/1) 8:28 AM CDT (10/1)
Length of Visible Light 12h 38m
Length of Day
11h 44m
Full, 98% of the Moon is Illuminated
Oct 1
Full
Oct 8
Last Quarter
Oct 15
New
Oct 21
First Quarter
Oct 29
Full

Hourly Weather History & Observations

Time (CDT) Temp. Dew Point Humidity Pressure Visibility Wind Dir Wind Speed Gust Speed Precip Events Conditions
12:15 AM 58.3 °F 47.1 °F 66% 29.89 in 10.0 mi NE 5.8 mph - N/A   Clear
12:35 AM 57.6 °F 46.8 °F 67% 29.89 in 10.0 mi NE 4.6 mph - N/A   Clear
12:55 AM 56.5 °F 46.9 °F 70% 29.89 in 10.0 mi NE 5.8 mph - N/A   Clear
1:15 AM 56.3 °F 46.8 °F 70% 29.89 in 10.0 mi NNE 4.6 mph - N/A   Clear
1:35 AM 56.3 °F 46.6 °F 70% 29.89 in 10.0 mi NNE 4.6 mph - N/A   Clear
1:55 AM 55.4 °F 46.4 °F 72% 29.89 in 10.0 mi NNE 5.8 mph - N/A   Clear
2:15 AM 54.5 °F 46.4 °F 74% 29.89 in 10.0 mi NNE 5.8 mph - N/A   Clear
2:35 AM 53.8 °F 45.9 °F 75% 29.89 in 10.0 mi NNE 5.8 mph - N/A   Clear
2:55 AM 53.6 °F 46.4 °F 77% 29.88 in 10.0 mi NNE 4.6 mph - N/A   Clear
3:15 AM 53.6 °F 45.7 °F 75% 29.87 in 10.0 mi NNE 4.6 mph - N/A   Clear
3:35 AM 53.6 °F 45.5 °F 74% 29.86 in 10.0 mi NNE 4.6 mph - N/A   Clear
3:55 AM 53.6 °F 46.4 °F 77% 29.86 in 10.0 mi NNE 5.8 mph - N/A   Clear
4:15 AM 52.7 °F 45.7 °F 77% 29.86 in 10.0 mi NNE 4.6 mph - N/A   Clear
4:35 AM 52.3 °F 45.9 °F 79% 29.86 in 10.0 mi NNE 3.5 mph - N/A   Clear
4:55 AM 52.2 °F 45.9 °F 79% 29.86 in 10.0 mi NE 3.5 mph - N/A   Clear
5:15 AM 52.0 °F 46.0 °F 80% 29.86 in 10.0 mi NNE 4.6 mph - N/A   Clear
5:35 AM 52.0 °F 46.0 °F 80% 29.86 in 10.0 mi NNE 3.5 mph - N/A   Clear
5:55 AM 51.8 °F 46.0 °F 81% 29.86 in 10.0 mi NNE 4.6 mph - N/A   Clear
6:15 AM 51.8 °F 46.0 °F 81% 29.87 in 10.0 mi NNE 3.5 mph - N/A   Clear
6:35 AM 51.6 °F 46.2 °F 82% 29.87 in 10.0 mi North 4.6 mph - N/A   Clear
6:55 AM 51.8 °F 46.4 °F 82% 29.87 in 10.0 mi North 3.5 mph - N/A   Clear
7:15 AM 50.9 °F 46.4 °F 85% 29.88 in 10.0 mi Calm Calm - N/A   Clear
7:35 AM 50.9 °F 46.6 °F 85% 29.88 in 10.0 mi NNE 4.6 mph - N/A   Clear
7:55 AM 51.4 °F 46.8 °F 84% 29.87 in 10.0 mi North 5.8 mph - N/A   Clear
8:15 AM 52.0 °F 46.9 °F 83% 29.87 in 10.0 mi NNE 8.1 mph - N/A   Clear
8:35 AM 52.0 °F 47.5 °F 85% 29.87 in 1.8 mi NNE 5.8 mph - N/A   Mist
8:55 AM 52.9 °F 48.0 °F 84% 29.87 in 10.0 mi NNE 4.6 mph - N/A   Clear
9:15 AM 54.0 °F 48.2 °F 81% 29.87 in 10.0 mi NE 6.9 mph - N/A   Clear
9:35 AM 54.9 °F 48.2 °F 78% 29.87 in 10.0 mi NE 6.9 mph - N/A   Clear
9:55 AM 56.1 °F 48.4 °F 75% 29.87 in 10.0 mi NNE 6.9 mph - N/A   Clear
10:15 AM 57.2 °F 48.4 °F 72% 29.87 in 10.0 mi NNE 8.1 mph - N/A   Clear
10:35 AM 58.1 °F 48.7 °F 71% 29.87 in 10.0 mi NNE 4.6 mph - N/A   Clear
10:55 AM 59.0 °F 48.6 °F 68% 29.88 in 10.0 mi NE 4.6 mph - N/A   Clear
11:15 AM 59.4 °F 48.6 °F 67% 29.87 in 10.0 mi NNE 4.6 mph - N/A   Clear
11:35 AM 60.1 °F 49.1 °F 67% 29.87 in 10.0 mi North 4.6 mph - N/A   Clear
11:55 AM 60.8 °F 49.1 °F 65% 29.86 in 10.0 mi North 4.6 mph - N/A   Clear
12:15 PM 61.3 °F 48.6 °F 63% 29.86 in 10.0 mi North 5.8 mph - N/A   Clear
12:35 PM 61.7 °F 48.6 °F 62% 29.86 in 10.0 mi North 4.6 mph - N/A   Clear
12:55 PM 62.6 °F 48.2 °F 59% 29.85 in 10.0 mi NNE 5.8 mph - N/A   Clear
1:15 PM 63.9 °F 47.8 °F 56% 29.85 in 10.0 mi NNE 6.9 mph - N/A   Clear
1:35 PM 65.1 °F 47.8 °F 54% 29.84 in 10.0 mi NNE 6.9 mph - N/A   Clear
1:55 PM 64.9 °F 46.4 °F 51% 29.83 in 10.0 mi NNE 9.2 mph - N/A   Clear
2:15 PM 65.5 °F 44.4 °F 46% 29.83 in 10.0 mi ENE 11.5 mph 16.1 mph N/A   Clear
2:35 PM 64.9 °F 45.0 °F 48% 29.83 in 10.0 mi NE 9.2 mph - N/A   Clear
2:55 PM 64.4 °F 44.6 °F 49% 29.82 in 10.0 mi NE 12.7 mph 18.4 mph N/A   Clear
3:15 PM 65.3 °F 44.6 °F 47% 29.82 in 10.0 mi NE 8.1 mph - N/A   Clear
3:35 PM 66.2 °F 46.4 °F 49% 29.82 in 10.0 mi NNE 9.2 mph - N/A   Clear
3:55 PM 66.2 °F 46.4 °F 49% 29.81 in 10.0 mi North 6.9 mph - N/A   Clear
4:15 PM 66.4 °F 43.5 °F 44% 29.82 in 10.0 mi NE 6.9 mph - N/A   Clear
4:35 PM 65.3 °F 42.8 °F 44% 29.82 in 10.0 mi NE 6.9 mph - N/A   Clear
4:55 PM 64.6 °F 42.6 °F 45% 29.82 in 10.0 mi NE 4.6 mph - N/A   Clear
5:15 PM 64.4 °F 43.3 °F 46% 29.82 in 10.0 mi NNE 3.5 mph - N/A   Clear
5:35 PM 63.9 °F 44.4 °F 49% 29.82 in 10.0 mi North 4.6 mph - N/A   Clear
5:55 PM 63.5 °F 43.9 °F 49% 29.81 in 10.0 mi NNE 5.8 mph - N/A   Clear
6:15 PM 62.1 °F 45.0 °F 53% 29.82 in 10.0 mi North 4.6 mph - N/A   Clear
6:35 PM 61.5 °F 44.6 °F 54% 29.82 in 10.0 mi NNE 4.6 mph - N/A   Clear
6:55 PM 61.0 °F 44.6 °F 55% 29.82 in 10.0 mi NNE 5.8 mph - N/A   Clear
7:15 PM 61.0 °F 44.1 °F 54% 29.82 in 10.0 mi NNE 4.6 mph - N/A   Clear
7:35 PM 60.3 °F 43.7 °F 54% 29.83 in 10.0 mi North 4.6 mph - N/A   Clear
7:55 PM 57.9 °F 44.8 °F 62% 29.83 in 10.0 mi North 4.6 mph - N/A   Clear
8:15 PM 57.6 °F 45.1 °F 63% 29.84 in 10.0 mi North 3.5 mph - N/A   Clear
8:35 PM 58.6 °F 45.0 °F 60% 29.84 in 10.0 mi Calm Calm - N/A   Clear
8:55 PM 59.0 °F 45.0 °F 60% 29.84 in 10.0 mi Calm Calm - N/A   Clear
9:15 PM 57.0 °F 45.5 °F 65% 29.84 in 10.0 mi North 3.5 mph - N/A   Clear
9:35 PM 57.2 °F 46.4 °F 67% 29.84 in 10.0 mi North 3.5 mph - N/A   Clear
9:55 PM 57.4 °F 45.1 °F 64% 29.84 in 10.0 mi Calm Calm - N/A   Clear
10:15 PM 55.4 °F 46.4 °F 72% 29.84 in 10.0 mi NW 3.5 mph - N/A   Clear
10:35 PM 54.3 °F 46.4 °F 75% 29.84 in 10.0 mi WNW 3.5 mph - N/A   Clear
10:55 PM 55.4 °F 46.4 °F 72% 29.84 in 10.0 mi North 3.5 mph - N/A   Clear
11:15 PM 54.7 °F 45.1 °F 70% 29.83 in 10.0 mi NNW 3.5 mph - N/A   Clear
11:35 PM 55.0 °F 44.4 °F 67% 29.82 in 10.0 mi NE 5.8 mph - N/A   Clear
11:55 PM 54.7 °F 44.4 °F 68% 29.83 in 10.0 mi Calm Calm - N/A   Clear